Fort Hood, TX

5:02 AM CDT on May 27, 2017 (GMT -0500)
Killeen-Fort Hood Regional

Weather History for KGRK - May, 2013

Change the Weather History Date:

Friday, May 24, 2013

  Actual Average Record
Temperature  
Mean Temperature 75 °F -  
Max Temperature 82 °F 86 °F 100 °F (2000)
Min Temperature 68 °F 65 °F 55 °F (2017)
Cooling Degree Days 10    
Growing Degree Days 25 (Base 50)    
Moisture  
Dew Point 69 °F    
Average Humidity 87    
Maximum Humidity 94    
Minimum Humidity 70    
Precipitation  
Precipitation 1.69 in - - ()
Sea Level Pressure  
Sea Level Pressure 30.08 in    
Wind  
Wind Speed 8 mph (ESE)    
Max Wind Speed 24 mph    
Max Gust Speed 33 mph    
Visibility 5 miles    
Events Fog , Rain , Thunderstorm    
Averages and records for this station are not official NWS values.
T = Trace of Precipitation, MM = Missing Value Source: NWS Daily Summary

Daily Weather History Graph

Daily Weather History Graph

Search for Another Location

Airport or City:

Trip Planner

Search our weather history database for the weather conditions in past years. The results will help you decide how hot, cold, wet, or windy it might be!

Date:

Astronomy

May. 24, 2013 Rise Set
Actual Time 6:30 AM CDT 8:25 PM CDT
Civil Twilight 6:03 AM CDT 8:52 PM CDT
Nautical Twilight 5:31 AM CDT 9:25 PM CDT
Astronomical Twilight 4:56 AM CDT 10:00 PM CDT
Moon 8:11 PM CDT (5/24) 6:00 AM CDT (5/24)
Length of Visible Light 14h 49m
Length of Day
13h 55m
Full, 100% of the Moon is Illuminated
May 24
Full
May 24
Full
May 31
Last Quarter
Jun 8
New
Jun 16
First Quarter

Hourly Weather History & Observations

Time (CDT) Temp. Heat Index Dew Point Humidity Pressure Visibility Wind Dir Wind Speed Gust Speed Precip Events Conditions
12:55 AM 78.8 °F - 71.6 °F 78% 29.90 in 6.0 mi ESE 9.2 mph - N/A   Overcast
1:55 AM 75.2 °F - 71.6 °F 89% 30.03 in 6.0 mi SE 3.5 mph - N/A   Mostly Cloudy
2:55 AM 75.2 °F - 69.8 °F 83% 30.00 in 6.0 mi SSE 10.4 mph - N/A   Mostly Cloudy
3:55 AM 75.2 °F - 71.6 °F 89% 30.03 in 6.0 mi SSE 3.5 mph - N/A   Mostly Cloudy
4:17 AM 73.4 °F - 69.8 °F 88% 30.03 in 6.0 mi Calm Calm - N/A   Overcast
4:55 AM 73.4 °F - 69.8 °F 88% 30.01 in 6.0 mi East 5.8 mph - N/A   Overcast
5:55 AM 73.4 °F - 69.8 °F 88% 30.01 in 6.0 mi SSE 8.1 mph - N/A   Mostly Cloudy
6:37 AM 73.4 °F - 69.8 °F 88% 30.03 in 6.0 mi SSE 5.8 mph - N/A   Mostly Cloudy
6:55 AM 73.4 °F - 71.6 °F 94% 30.04 in 7.0 mi ESE 8.1 mph - N/A   Overcast
7:34 AM 73.4 °F - 71.6 °F 94% 30.07 in 7.0 mi ESE 6.9 mph - N/A   Overcast
7:55 AM 73.4 °F - 71.6 °F 94% 30.08 in 7.0 mi SE 3.5 mph - N/A   Overcast
8:55 AM 73.4 °F - 71.6 °F 94% 30.10 in 7.0 mi East 6.9 mph - N/A Rain Light Rain
9:06 AM 75.2 °F - 71.6 °F 89% 30.12 in 7.0 mi ESE 8.1 mph - N/A   Overcast
9:40 AM 77.0 °F - 71.6 °F 83% 30.12 in 7.0 mi SE 6.9 mph - N/A   Overcast
9:55 AM 77.0 °F - 71.6 °F 83% 30.11 in 7.0 mi SSE 9.2 mph - N/A   Overcast
10:55 AM 78.8 °F - 71.6 °F 78% 30.11 in 7.0 mi SE 9.2 mph - N/A   Overcast
11:55 AM 80.6 °F 84.6 °F 71.6 °F 74% 30.12 in 7.0 mi ESE 10.4 mph - N/A   Overcast
12:55 PM 82.4 °F 87.2 °F 71.6 °F 70% 30.10 in 7.0 mi ESE 11.5 mph - N/A   Overcast
1:49 PM 82.4 °F 87.2 °F 71.6 °F 70% 30.08 in 7.0 mi ESE 13.8 mph - N/A Thunderstorm Thunderstorm
1:55 PM 82.4 °F 87.2 °F 71.6 °F 70% 30.07 in 7.0 mi ESE 13.8 mph - N/A Thunderstorm Thunderstorm
2:26 PM 80.6 °F 83.9 °F 69.8 °F 70% 30.08 in 7.0 mi East 13.8 mph - N/A Rain , Thunderstorm Thunderstorms and Rain
2:31 PM 77.0 °F - 69.8 °F 78% 30.08 in 1.0 mi East 13.8 mph - N/A Rain , Thunderstorm Thunderstorms and Rain
2:36 PM 75.2 °F - 68.0 °F 78% 30.08 in 7.0 mi NE 9.2 mph 33.4 mph N/A Thunderstorm Thunderstorm
2:41 PM 77.0 °F - 71.6 °F 83% 30.07 in 7.0 mi East 4.6 mph - N/A Thunderstorm Thunderstorm
2:55 PM 75.2 °F - 71.6 °F 89% 30.07 in 7.0 mi East 3.5 mph - N/A Thunderstorm Thunderstorm
3:37 PM 71.6 °F - 69.8 °F 94% 30.07 in 6.0 mi East 3.5 mph - N/A Rain , Thunderstorm Light Thunderstorms and Rain
4:03 PM 69.8 °F - 66.2 °F 88% 30.10 in 0.8 mi WSW 21.9 mph 33.4 mph N/A Rain , Thunderstorm Light Thunderstorms and Rain
4:08 PM 69.8 °F - 66.2 °F 88% 30.10 in 0.2 mi WSW 24.2 mph 33.4 mph N/A Fog , Rain , Thunderstorm Thunderstorms and Rain
4:09 PM 68.0 °F - 66.2 °F 94% 30.03 in 2.5 mi SE 13.8 mph - N/A Rain , Thunderstorm Thunderstorms and Rain
4:29 PM 69.8 °F - 68.0 °F 94% 30.11 in 0.8 mi South 18.4 mph - N/A Rain , Thunderstorm Thunderstorms and Rain
4:33 PM 69.8 °F - 68.0 °F 94% 30.06 in 1.0 mi South 13.8 mph 25.3 mph N/A Rain , Thunderstorm Thunderstorms and Rain
4:38 PM 69.8 °F - 68.0 °F 94% 30.02 in 1.8 mi South 13.8 mph 25.3 mph N/A Rain , Thunderstorm Thunderstorms and Rain
4:42 PM 69.8 °F - 68.0 °F 94% 30.00 in 2.0 mi South 9.2 mph - N/A Rain , Thunderstorm Thunderstorms and Rain
4:55 PM 69.8 °F - 68.0 °F 94% 29.99 in 2.0 mi South 9.2 mph - N/A Rain , Thunderstorm Thunderstorms and Rain
5:15 PM 69.8 °F - 66.2 °F 88% 30.05 in 3.0 mi South 9.2 mph - N/A Rain , Thunderstorm Thunderstorms and Rain
5:55 PM 69.8 °F - 66.2 °F 88% 30.09 in 3.0 mi East 11.5 mph - N/A Rain , Thunderstorm Thunderstorms and Rain
6:31 PM 69.8 °F - 66.2 °F 88% 30.12 in 6.0 mi North 4.6 mph - N/A Rain Light Rain
6:55 PM 69.8 °F - 66.2 °F 88% 30.10 in 6.0 mi North 5.8 mph - N/A Rain Light Rain
7:10 PM 69.8 °F - 66.2 °F 88% 30.11 in 7.0 mi Calm Calm - N/A   Overcast
7:30 PM 69.8 °F - 66.2 °F 88% 30.12 in 5.0 mi Calm Calm - N/A Rain Light Rain
7:55 PM 68.0 °F - 66.2 °F 94% 30.11 in 4.0 mi South 17.3 mph 26.5 mph N/A Rain Light Rain
8:55 PM 69.8 °F - 66.2 °F 88% 30.08 in 6.0 mi East 12.7 mph - N/A Rain Light Rain
9:32 PM 69.8 °F - 66.2 °F 88% 30.14 in 7.0 mi East 9.2 mph - N/A   Overcast
9:55 PM 68.0 °F - 66.2 °F 94% 30.15 in 6.0 mi NE 9.2 mph - N/A   Overcast
10:55 PM 69.8 °F - 66.2 °F 88% 30.18 in 7.0 mi ENE 5.8 mph - N/A   Scattered Clouds
11:55 PM 69.8 °F - 64.4 °F 83% 30.18 in 7.0 mi East 12.7 mph - N/A   Partly Cloudy